owner,sensor,date,latitude,longitude,air_temperature,qcFlag 
ADCP,ioos:station:wmo:42362:1,2006-09-12T19:00:00Z,27.7950,-90.6480,29.0,11111222 
ADCP,ioos:station:wmo:42362:1,2006-09-12T20:00:00Z,27.7950,-90.6480,28.0,11111222 
ADCP,ioos:station:wmo:42362:1,2006-09-12T21:00:00Z,27.7950,-90.6480,29.0,11111222 
ADCP,ioos:station:wmo:42362:1,2006-09-12T22:00:00Z,27.7950,-90.6480,29.0,11111222 
ADCP,ioos:station:wmo:42362:1,2006-09-12T23:00:00Z,27.7950,-90.6480,29.0,11111222 
ADCP,ioos:station:wmo:42362:1,2006-09-13T00:00:00Z,27.7950,-90.6480,29.0,11111222 
ADCP,ioos:station:wmo:42362:1,2006-09-13T01:00:00Z,27.7950,-90.6480,29.0,11111222 
ADCP,ioos:station:wmo:42362:1,2006-09-13T02:00:00Z,27.7950,-90.6480,28.0,11111222 
ADCP,ioos:station:wmo:42362:1,2006-09-13T03:00:00Z,27.7950,-90.6480,28.0,11111222 
ADCP,ioos:station:wmo:42362:1,2006-09-13T04:00:00Z,27.7950,-90.6480,28.0,11111222 
ADCP,ioos:station:wmo:42362:1,2006-09-13T05:00:00Z,27.7950,-90.6480,28.0,11111222 
ADCP,ioos:station:wmo:42362:1,2006-09-13T06:00:00Z,27.7950,-90.6480,28.0,11111222 
ADCP,ioos:station:wmo:42362:1,2006-09-13T07:00:00Z,27.7950,-90.6480,28.0,11111222 
ADCP,ioos:station:wmo:42362:1,2006-09-13T08:00:00Z,27.7950,-90.6480,28.0,11111222 
ADCP,ioos:station:wmo:42362:1,2006-09-13T09:00:00Z,27.7950,-90.6480,28.0,11111222 
ADCP,ioos:station:wmo:42362:1,2006-09-13T10:00:00Z,27.7950,-90.6480,28.0,11111222 
ADCP,ioos:station:wmo:42362:1,2006-09-13T11:00:00Z,27.7950,-90.6480,28.0,11111222 
ADCP,ioos:station:wmo:42362:1,2006-09-13T12:00:00Z,27.7950,-90.6480,28.0,11111222 
ADCP,ioos:station:wmo:42362:1,2006-09-13T13:00:00Z,27.7950,-90.6480,28.0,11111222 
ADCP,ioos:station:wmo:42362:1,2006-09-13T14:00:00Z,27.7950,-90.6480,28.0,11111222 
ADCP,ioos:station:wmo:42362:1,2006-09-13T15:00:00Z,27.7950,-90.6480,28.0,11111222 
ADCP,ioos:station:wmo:42362:1,2006-09-13T16:00:00Z,27.7950,-90.6480,28.0,11111222 
ADCP,ioos:station:wmo:42362:1,2006-09-13T17:00:00Z,27.7950,-90.6480,28.0,11111222 
ADCP,ioos:station:wmo:42362:1,2006-09-13T18:00:00Z,27.7950,-90.6480,28.0,11111222 
ADCP,ioos:station:wmo:42362:1,2006-09-13T19:00:00Z,27.7950,-90.6480,28.0,11111222 
ADCP,ioos:station:wmo:42362:1,2006-09-13T20:00:00Z,27.7950,-90.6480,29.0,11111222 
ADCP,ioos:station:wmo:42362:1,2006-09-13T21:00:00Z,27.7950,-90.6480,28.0,11111222 
ADCP,ioos:station:wmo:42362:1,2006-09-13T22:00:00Z,27.7950,-90.6480,27.0,11111222 
ADCP,ioos:station:wmo:42362:1,2006-09-13T23:00:00Z,27.7950,-90.6480,27.0,11111222 
ADCP,ioos:station:wmo:42362:1,2006-09-14T00:00:00Z,27.7950,-90.6480,27.0,11111222 
ADCP,ioos:station:wmo:42362:1,2006-09-14T01:00:00Z,27.7950,-90.6480,27.0,11111222 
ADCP,ioos:station:wmo:42362:1,2006-09-14T02:00:00Z,27.7950,-90.6480,27.0,11111222 
ADCP,ioos:station:wmo:42362:1,2006-09-14T03:00:00Z,27.7950,-90.6480,27.0,11111222 
ADCP,ioos:station:wmo:42362:1,2006-09-14T04:00:00Z,27.7950,-90.6480,27.0,11111222 
ADCP,ioos:station:wmo:42362:1,2006-09-14T05:00:00Z,27.7950,-90.6480,27.0,11111222 
ADCP,ioos:station:wmo:42362:1,2006-09-14T06:00:00Z,27.7950,-90.6480,28.0,11111222 
ADCP,ioos:station:wmo:42362:1,2006-09-14T07:00:00Z,27.7950,-90.6480,28.0,11111222 
ADCP,ioos:station:wmo:42362:1,2006-09-14T08:00:00Z,27.7950,-90.6480,28.0,11111222 
ADCP,ioos:station:wmo:42362:1,2006-09-14T09:00:00Z,27.7950,-90.6480,28.0,11111222 
ADCP,ioos:station:wmo:42362:1,2006-09-14T10:00:00Z,27.7950,-90.6480,28.0,11111222 
ADCP,ioos:station:wmo:42362:1,2006-09-14T11:00:00Z,27.7950,-90.6480,28.0,11111222 
ADCP,ioos:station:wmo:42362:1,2006-09-14T12:00:00Z,27.7950,-90.6480,28.0,11111222 
ADCP,ioos:station:wmo:42362:1,2006-09-14T13:00:00Z,27.7950,-90.6480,28.0,11111222 
ADCP,ioos:station:wmo:42362:1,2006-09-14T14:00:00Z,27.7950,-90.6480,28.0,11111222 
ADCP,ioos:station:wmo:42362:1,2006-09-14T15:00:00Z,27.7950,-90.6480,28.0,11111222 
ADCP,ioos:station:wmo:42362:1,2006-09-14T16:00:00Z,27.7950,-90.6480,29.0,11111222 
ADCP,ioos:station:wmo:42362:1,2006-09-14T17:00:00Z,27.7950,-90.6480,28.0,11111222 
ADCP,ioos:station:wmo:42362:1,2006-09-14T18:00:00Z,27.7950,-90.6480,29.0,11111222 
ADCP,ioos:station:wmo:42362:1,2006-09-14T19:00:00Z,27.7950,-90.6480,29.0,11111222 
ADCP,ioos:station:wmo:42362:1,2006-09-14T20:00:00Z,27.7950,-90.6480,29.0,11111222 
ADCP,ioos:station:wmo:42362:1,2006-09-14T21:00:00Z,27.7950,-90.6480,29.0,11111222 
ADCP,ioos:station:wmo:42362:1,2006-09-14T22:00:00Z,27.7950,-90.6480,30.0,11111222 
ADCP,ioos:station:wmo:42362:1,2006-09-14T23:00:00Z,27.7950,-90.6480,29.0,11111222 
ADCP,ioos:station:wmo:42362:1,2006-09-15T00:00:00Z,27.7950,-90.6480,29.0,11111222 
ADCP,ioos:station:wmo:42362:1,2006-09-15T01:00:00Z,27.7950,-90.6480,28.0,11111222 
ADCP,ioos:station:wmo:42362:1,2006-09-15T02:00:00Z,27.7950,-90.6480,28.0,11111222 
ADCP,ioos:station:wmo:42362:1,2006-09-15T03:00:00Z,27.7950,-90.6480,28.0,11111222 
ADCP,ioos:station:wmo:42362:1,2006-09-15T04:00:00Z,27.7950,-90.6480,28.0,11111222 
ADCP,ioos:station:wmo:42362:1,2006-09-15T05:00:00Z,27.7950,-90.6480,28.0,11111222 
ADCP,ioos:station:wmo:42362:1,2006-09-15T06:00:00Z,27.7950,-90.6480,28.0,11111222 
ADCP,ioos:station:wmo:42362:1,2006-09-15T07:00:00Z,27.7950,-90.6480,28.0,11111222 
ADCP,ioos:station:wmo:42362:1,2006-09-15T08:00:00Z,27.7950,-90.6480,28.0,11111222 
ADCP,ioos:station:wmo:42362:1,2006-09-15T09:00:00Z,27.7950,-90.6480,28.0,11111222 
ADCP,ioos:station:wmo:42362:1,2006-09-15T10:00:00Z,27.7950,-90.6480,28.0,11111222 
ADCP,ioos:station:wmo:42362:1,2006-09-15T11:00:00Z,27.7950,-90.6480,28.0,11111222 
ADCP,ioos:station:wmo:42362:1,2006-09-15T12:00:00Z,27.7950,-90.6480,28.0,11111222 
ADCP,ioos:station:wmo:42362:1,2006-09-15T13:00:00Z,27.7950,-90.6480,28.0,11111222 
ADCP,ioos:station:wmo:42362:1,2006-09-15T14:00:00Z,27.7950,-90.6480,29.0,11111222 
ADCP,ioos:station:wmo:42362:1,2006-09-15T15:00:00Z,27.7950,-90.6480,29.0,11111222 
ADCP,ioos:station:wmo:42362:1,2006-09-15T16:00:00Z,27.7950,-90.6480,30.0,11111222 
ADCP,ioos:station:wmo:42362:1,2006-09-15T17:00:00Z,27.7950,-90.6480,31.0,11111222 
ADCP,ioos:station:wmo:42362:1,2006-09-15T18:00:00Z,27.7950,-90.6480,29.0,11111222 
ADCP,ioos:station:wmo:42362:1,2006-09-15T19:00:00Z,27.7950,-90.6480,31.0,11111222 
ADCP,ioos:station:wmo:42362:1,2006-09-15T20:00:00Z,27.7950,-90.6480,27.0,11111222 
ADCP,ioos:station:wmo:42362:1,2006-09-15T21:00:00Z,27.7950,-90.6480,27.0,11111222 
ADCP,ioos:station:wmo:42362:1,2006-09-15T22:00:00Z,27.7950,-90.6480,29.0,11111222 
ADCP,ioos:station:wmo:42362:1,2006-09-15T23:00:00Z,27.7950,-90.6480,32.0,11111222 
ADCP,ioos:station:wmo:42362:1,2006-09-16T00:00:00Z,27.7950,-90.6480,29.0,11111222 
ADCP,ioos:station:wmo:42362:1,2006-09-16T01:00:00Z,27.7950,-90.6480,28.0,11111222 
ADCP,ioos:station:wmo:42362:1,2006-09-16T02:00:00Z,27.7950,-90.6480,28.0,11111222 
ADCP,ioos:station:wmo:42362:1,2006-09-16T03:00:00Z,27.7950,-90.6480,28.0,11111222 
ADCP,ioos:station:wmo:42362:1,2006-09-16T04:00:00Z,27.7950,-90.6480,28.0,11111222 
ADCP,ioos:station:wmo:42362:1,2006-09-16T05:00:00Z,27.7950,-90.6480,28.0,11111222 
ADCP,ioos:station:wmo:42362:1,2006-09-16T06:00:00Z,27.7950,-90.6480,28.0,11111222 
ADCP,ioos:station:wmo:42362:1,2006-09-16T07:00:00Z,27.7950,-90.6480,28.0,11111222 
ADCP,ioos:station:wmo:42362:1,2006-09-16T08:00:00Z,27.7950,-90.6480,27.0,11111222 
ADCP,ioos:station:wmo:42362:1,2006-09-16T09:00:00Z,27.7950,-90.6480,26.0,11111222 
ADCP,ioos:station:wmo:42362:1,2006-09-16T10:00:00Z,27.7950,-90.6480,27.0,11111222 
ADCP,ioos:station:wmo:42362:1,2006-09-16T11:00:00Z,27.7950,-90.6480,28.0,11111222 
ADCP,ioos:station:wmo:42362:1,2006-09-16T12:00:00Z,27.7950,-90.6480,29.0,11111222 
ADCP,ioos:station:wmo:42362:1,2006-09-16T13:00:00Z,27.7950,-90.6480,29.0,11111222 
ADCP,ioos:station:wmo:42362:1,2006-09-16T14:00:00Z,27.7950,-90.6480,29.0,11111222 
ADCP,ioos:station:wmo:42362:1,2006-09-16T15:00:00Z,27.7950,-90.6480,29.0,11111222 
ADCP,ioos:station:wmo:42362:1,2006-09-16T16:00:00Z,27.7950,-90.6480,29.0,11111222 
ADCP,ioos:station:wmo:42362:1,2006-09-16T17:00:00Z,27.7950,-90.6480,30.0,11111222 
ADCP,ioos:station:wmo:42362:1,2006-09-16T18:00:00Z,27.7950,-90.6480,29.0,11111222 
ADCP,ioos:station:wmo:42362:1,2006-09-16T19:00:00Z,27.7950,-90.6480,31.0,11111222 
ADCP,ioos:station:wmo:42362:1,2006-09-16T20:00:00Z,27.7950,-90.6480,33.0,11111222 
ADCP,ioos:station:wmo:42362:1,2006-09-16T21:00:00Z,27.7950,-90.6480,33.0,11111222 
ADCP,ioos:station:wmo:42362:1,2006-09-16T22:00:00Z,27.7950,-90.6480,33.0,11111222 
ADCP,ioos:station:wmo:42362:1,2006-09-16T23:00:00Z,27.7950,-90.6480,31.0,11111222 
ADCP,ioos:station:wmo:42362:1,2006-09-17T00:00:00Z,27.7950,-90.6480,31.0,11111222 
ADCP,ioos:station:wmo:42362:1,2006-09-17T01:00:00Z,27.7950,-90.6480,29.0,11111222 
ADCP,ioos:station:wmo:42362:1,2006-09-17T02:00:00Z,27.7950,-90.6480,29.0,11111222 
ADCP,ioos:station:wmo:42362:1,2006-09-17T03:00:00Z,27.7950,-90.6480,29.0,11111222 
ADCP,ioos:station:wmo:42362:1,2006-09-17T04:00:00Z,27.7950,-90.6480,29.0,11111222 
ADCP,ioos:station:wmo:42362:1,2006-09-17T05:00:00Z,27.7950,-90.6480,29.0,11111222 
ADCP,ioos:station:wmo:42362:1,2006-09-17T06:00:00Z,27.7950,-90.6480,29.0,11111222 
ADCP,ioos:station:wmo:42362:1,2006-09-17T07:00:00Z,27.7950,-90.6480,29.0,11111222 
ADCP,ioos:station:wmo:42362:1,2006-09-17T08:00:00Z,27.7950,-90.6480,29.0,11111222 
ADCP,ioos:station:wmo:42362:1,2006-09-17T09:00:00Z,27.7950,-90.6480,29.0,11111222 
ADCP,ioos:station:wmo:42362:1,2006-09-17T10:00:00Z,27.7950,-90.6480,29.0,11111222 
ADCP,ioos:station:wmo:42362:1,2006-09-17T11:00:00Z,27.7950,-90.6480,29.0,11111222 
ADCP,ioos:station:wmo:42362:1,2006-09-17T12:00:00Z,27.7950,-90.6480,29.0,11111222 
ADCP,ioos:station:wmo:42362:1,2006-09-17T13:00:00Z,27.7950,-90.6480,29.0,11111222 
ADCP,ioos:station:wmo:42362:1,2006-09-17T14:00:00Z,27.7950,-90.6480,29.0,11111222 
ADCP,ioos:station:wmo:42362:1,2006-09-17T15:00:00Z,27.7950,-90.6480,29.0,11111222 
ADCP,ioos:station:wmo:42362:1,2006-09-17T18:00:00Z,27.7950,-90.6480,29.0,11111222 
ADCP,ioos:station:wmo:42362:1,2006-09-17T20:00:00Z,27.7950,-90.6480,29.0,11111222 
ADCP,ioos:station:wmo:42362:1,2006-09-17T21:00:00Z,27.7950,-90.6480,29.0,11111222 
ADCP,ioos:station:wmo:42362:1,2006-09-17T22:00:00Z,27.7950,-90.6480,29.0,11111222 
ADCP,ioos:station:wmo:42362:1,2006-09-17T23:00:00Z,27.7950,-90.6480,29.0,11111222 
ADCP,ioos:station:wmo:42362:1,2006-09-18T00:00:00Z,27.7950,-90.6480,29.0,11111222 
ADCP,ioos:station:wmo:42362:1,2006-09-18T01:00:00Z,27.7950,-90.6480,29.0,11111222 
ADCP,ioos:station:wmo:42362:1,2006-09-18T02:00:00Z,27.7950,-90.6480,29.0,11111222 
ADCP,ioos:station:wmo:42362:1,2006-09-18T03:00:00Z,27.7950,-90.6480,29.0,11111222 
ADCP,ioos:station:wmo:42362:1,2006-09-18T04:00:00Z,27.7950,-90.6480,29.0,11111222 
ADCP,ioos:station:wmo:42362:1,2006-09-18T12:00:00Z,27.7950,-90.6480,29.0,11111222 
ADCP,ioos:station:wmo:42362:1,2006-09-18T13:00:00Z,27.7950,-90.6480,29.0,11111222 
ADCP,ioos:station:wmo:42362:1,2006-09-18T14:00:00Z,27.7950,-90.6480,29.0,11111222 
ADCP,ioos:station:wmo:42362:1,2006-09-18T15:00:00Z,27.7950,-90.6480,29.0,11111222 
ADCP,ioos:station:wmo:42362:1,2006-09-18T16:00:00Z,27.7950,-90.6480,29.0,11111222 
ADCP,ioos:station:wmo:42362:1,2006-09-18T17:00:00Z,27.7950,-90.6480,30.0,11111222 
ADCP,ioos:station:wmo:42362:1,2006-09-18T18:00:00Z,27.7950,-90.6480,29.0,11111222 
ADCP,ioos:station:wmo:42362:1,2006-09-18T19:00:00Z,27.7950,-90.6480,30.0,11111222 
ADCP,ioos:station:wmo:42362:1,2006-09-18T20:00:00Z,27.7950,-90.6480,30.0,11111222 
ADCP,ioos:station:wmo:42362:1,2006-09-18T21:00:00Z,27.7950,-90.6480,30.0,11111222 
ADCP,ioos:station:wmo:42362:1,2006-09-18T22:00:00Z,27.7950,-90.6480,29.0,11111222 
ADCP,ioos:station:wmo:42362:1,2006-09-18T23:00:00Z,27.7950,-90.6480,29.0,11111222 
ADCP,ioos:station:wmo:42362:1,2006-09-19T00:00:00Z,27.7950,-90.6480,29.0,11111222 
ADCP,ioos:station:wmo:42362:1,2006-09-19T01:00:00Z,27.7950,-90.6480,29.0,11111222 
ADCP,ioos:station:wmo:42362:1,2006-09-19T02:00:00Z,27.7950,-90.6480,29.0,11111222 
ADCP,ioos:station:wmo:42362:1,2006-09-19T03:00:00Z,27.7950,-90.6480,29.0,11111222 
ADCP,ioos:station:wmo:42362:1,2006-09-19T04:00:00Z,27.7950,-90.6480,29.0,11111222 
ADCP,ioos:station:wmo:42362:1,2006-09-19T05:00:00Z,27.7950,-90.6480,24.0,11111222 
ADCP,ioos:station:wmo:42362:1,2006-09-19T06:00:00Z,27.7950,-90.6480,24.0,11111222 
ADCP,ioos:station:wmo:42362:1,2006-09-19T07:00:00Z,27.7950,-90.6480,28.0,11111222 
ADCP,ioos:station:wmo:42362:1,2006-09-19T08:00:00Z,27.7950,-90.6480,27.0,11111222 
ADCP,ioos:station:wmo:42362:1,2006-09-19T09:00:00Z,27.7950,-90.6480,28.0,11111222 
ADCP,ioos:station:wmo:42362:1,2006-09-19T10:00:00Z,27.7950,-90.6480,28.0,11111222 
ADCP,ioos:station:wmo:42362:1,2006-09-19T11:00:00Z,27.7950,-90.6480,28.0,11111222 
ADCP,ioos:station:wmo:42362:1,2006-09-19T12:00:00Z,27.7950,-90.6480,28.0,11111222 
ADCP,ioos:station:wmo:42362:1,2006-09-19T13:00:00Z,27.7950,-90.6480,28.0,11111222 
ADCP,ioos:station:wmo:42362:1,2006-09-19T14:00:00Z,27.7950,-90.6480,29.0,11111222 
ADCP,ioos:station:wmo:42362:1,2006-09-19T15:00:00Z,27.7950,-90.6480,29.0,11111222 
ADCP,ioos:station:wmo:42362:1,2006-09-19T16:00:00Z,27.7950,-90.6480,29.0,11111222 
ADCP,ioos:station:wmo:42362:1,2006-09-19T17:00:00Z,27.7950,-90.6480,26.0,11111222 
ADCP,ioos:station:wmo:42362:1,2006-09-19T18:00:00Z,27.7950,-90.6480,29.0,11111222 
ADCP,ioos:station:wmo:42362:1,2006-09-19T19:00:00Z,27.7950,-90.6480,30.0,11111222 
ADCP,ioos:station:wmo:42362:1,2006-09-19T20:00:00Z,27.7950,-90.6480,28.0,11111222 
ADCP,ioos:station:wmo:42362:1,2006-09-19T21:00:00Z,27.7950,-90.6480,28.0,11111222 
ADCP,ioos:station:wmo:42362:1,2006-09-19T22:00:00Z,27.7950,-90.6480,28.0,11111222 
ADCP,ioos:station:wmo:42362:1,2006-09-19T23:00:00Z,27.7950,-90.6480,29.0,11111222 
ADCP,ioos:station:wmo:42362:1,2006-09-20T00:00:00Z,27.7950,-90.6480,28.0,11111222 
ADCP,ioos:station:wmo:42362:1,2006-09-20T01:00:00Z,27.7950,-90.6480,28.0,11111222 
ADCP,ioos:station:wmo:42362:1,2006-09-20T02:00:00Z,27.7950,-90.6480,28.0,11111222 
ADCP,ioos:station:wmo:42362:1,2006-09-20T03:00:00Z,27.7950,-90.6480,28.0,11111222 
ADCP,ioos:station:wmo:42362:1,2006-09-20T04:00:00Z,27.7950,-90.6480,28.0,11111222 
ADCP,ioos:station:wmo:42362:1,2006-09-20T05:00:00Z,27.7950,-90.6480,28.0,11111222 
ADCP,ioos:station:wmo:42362:1,2006-09-20T06:00:00Z,27.7950,-90.6480,28.0,11111222 
ADCP,ioos:station:wmo:42362:1,2006-09-20T07:00:00Z,27.7950,-90.6480,28.0,11111222 
ADCP,ioos:station:wmo:42362:1,2006-09-20T08:00:00Z,27.7950,-90.6480,27.0,11111222 
ADCP,ioos:station:wmo:42362:1,2006-09-20T09:00:00Z,27.7950,-90.6480,28.0,11111222 
ADCP,ioos:station:wmo:42362:1,2006-09-20T10:00:00Z,27.7950,-90.6480,28.0,11111222 
ADCP,ioos:station:wmo:42362:1,2006-09-20T11:00:00Z,27.7950,-90.6480,27.0,11111222 
ADCP,ioos:station:wmo:42362:1,2006-09-20T12:00:00Z,27.7950,-90.6480,27.0,11111222 
ADCP,ioos:station:wmo:42362:1,2006-09-20T13:00:00Z,27.7950,-90.6480,28.0,11111222 
ADCP,ioos:station:wmo:42362:1,2006-09-20T14:00:00Z,27.7950,-90.6480,28.0,11111222 
ADCP,ioos:station:wmo:42362:1,2006-09-20T15:00:00Z,27.7950,-90.6480,28.0,11111222 
ADCP,ioos:station:wmo:42362:1,2006-09-20T16:00:00Z,27.7950,-90.6480,29.0,11111222 
ADCP,ioos:station:wmo:42362:1,2006-09-20T17:00:00Z,27.7950,-90.6480,29.0,11111222 
ADCP,ioos:station:wmo:42362:1,2006-09-20T18:00:00Z,27.7950,-90.6480,29.0,11111222 
ADCP,ioos:station:wmo:42362:1,2006-09-20T19:00:00Z,27.7950,-90.6480,29.0,11111222 
ADCP,ioos:station:wmo:42362:1,2006-09-20T20:00:00Z,27.7950,-90.6480,29.0,11111222 
ADCP,ioos:station:wmo:42362:1,2006-09-20T21:00:00Z,27.7950,-90.6480,29.0,11111222 
ADCP,ioos:station:wmo:42362:1,2006-09-20T22:00:00Z,27.7950,-90.6480,29.0,11111222 
ADCP,ioos:station:wmo:42362:1,2006-09-20T23:00:00Z,27.7950,-90.6480,30.0,11111222 
ADCP,ioos:station:wmo:42362:1,2006-09-21T00:00:00Z,27.7950,-90.6480,28.0,11111222 
ADCP,ioos:station:wmo:42362:1,2006-09-21T01:00:00Z,27.7950,-90.6480,28.0,11111222 
ADCP,ioos:station:wmo:42362:1,2006-09-21T02:00:00Z,27.7950,-90.6480,28.0,11111222 
ADCP,ioos:station:wmo:42362:1,2006-09-21T03:00:00Z,27.7950,-90.6480,28.0,11111222 
ADCP,ioos:station:wmo:42362:1,2006-09-21T04:00:00Z,27.7950,-90.6480,28.0,11111222 
ADCP,ioos:station:wmo:42362:1,2006-09-21T05:00:00Z,27.7950,-90.6480,28.0,11111222 
ADCP,ioos:station:wmo:42362:1,2006-09-21T06:00:00Z,27.7950,-90.6480,28.0,11111222 
ADCP,ioos:station:wmo:42362:1,2006-09-21T07:00:00Z,27.7950,-90.6480,28.0,11111222 
ADCP,ioos:station:wmo:42362:1,2006-09-21T08:00:00Z,27.7950,-90.6480,28.0,11111222 
ADCP,ioos:station:wmo:42362:1,2006-09-21T09:00:00Z,27.7950,-90.6480,28.0,11111222 
ADCP,ioos:station:wmo:42362:1,2006-09-21T10:00:00Z,27.7950,-90.6480,28.0,11111222 
ADCP,ioos:station:wmo:42362:1,2006-09-21T11:00:00Z,27.7950,-90.6480,28.0,11111222 
ADCP,ioos:station:wmo:42362:1,2006-09-21T12:00:00Z,27.7950,-90.6480,29.0,11111222 
ADCP,ioos:station:wmo:42362:1,2006-09-21T13:00:00Z,27.7950,-90.6480,29.0,11111222 
ADCP,ioos:station:wmo:42362:1,2006-09-21T14:00:00Z,27.7950,-90.6480,29.0,11111222 
ADCP,ioos:station:wmo:42362:1,2006-09-21T15:00:00Z,27.7950,-90.6480,29.0,11111222 
ADCP,ioos:station:wmo:42362:1,2006-09-21T16:00:00Z,27.7950,-90.6480,29.0,11111222 
ADCP,ioos:station:wmo:42362:1,2006-09-21T17:00:00Z,27.7950,-90.6480,29.0,11111222 
ADCP,ioos:station:wmo:42362:1,2006-09-21T18:00:00Z,27.7950,-90.6480,29.0,11111222 
ADCP,ioos:station:wmo:42362:1,2006-09-21T19:00:00Z,27.7950,-90.6480,29.0,11111222 
ADCP,ioos:station:wmo:42362:1,2006-09-21T20:00:00Z,27.7950,-90.6480,29.0,11111222 
ADCP,ioos:station:wmo:42362:1,2006-09-21T21:00:00Z,27.7950,-90.6480,29.0,11111222 
ADCP,ioos:station:wmo:42362:1,2006-09-21T22:00:00Z,27.7950,-90.6480,29.0,11111222 
ADCP,ioos:station:wmo:42362:1,2006-09-21T23:00:00Z,27.7950,-90.6480,29.0,11111222 
ADCP,ioos:station:wmo:42362:1,2006-09-22T01:00:00Z,27.7950,-90.6480,29.0,11111222 
ADCP,ioos:station:wmo:42362:1,2006-09-22T02:00:00Z,27.7950,-90.6480,29.0,11111222 
ADCP,ioos:station:wmo:42362:1,2006-09-22T03:00:00Z,27.7950,-90.6480,29.0,11111222 
ADCP,ioos:station:wmo:42362:1,2006-09-22T04:00:00Z,27.7950,-90.6480,29.0,11111222 
ADCP,ioos:station:wmo:42362:1,2006-09-22T06:00:00Z,27.7950,-90.6480,29.0,11111222 
ADCP,ioos:station:wmo:42362:1,2006-09-22T07:00:00Z,27.7950,-90.6480,29.0,11111222 
ADCP,ioos:station:wmo:42362:1,2006-09-22T08:00:00Z,27.7950,-90.6480,29.0,11111222 
ADCP,ioos:station:wmo:42362:1,2006-09-22T09:00:00Z,27.7950,-90.6480,29.0,11111222 
ADCP,ioos:station:wmo:42362:1,2006-09-22T10:00:00Z,27.7950,-90.6480,29.0,11111222 
ADCP,ioos:station:wmo:42362:1,2006-09-22T11:00:00Z,27.7950,-90.6480,29.0,11111222 
ADCP,ioos:station:wmo:42362:1,2006-09-22T12:00:00Z,27.7950,-90.6480,29.0,11111222 
ADCP,ioos:station:wmo:42362:1,2006-09-22T13:00:00Z,27.7950,-90.6480,29.0,11111222 
ADCP,ioos:station:wmo:42362:1,2006-09-22T14:00:00Z,27.7950,-90.6480,29.0,11111222 
ADCP,ioos:station:wmo:42362:1,2006-09-22T15:00:00Z,27.7950,-90.6480,28.0,11111222 
ADCP,ioos:station:wmo:42362:1,2006-09-22T16:00:00Z,27.7950,-90.6480,30.0,11111222 
ADCP,ioos:station:wmo:42362:1,2006-09-22T17:00:00Z,27.7950,-90.6480,30.0,11111222 
ADCP,ioos:station:wmo:42362:1,2006-09-22T18:00:00Z,27.7950,-90.6480,30.0,11111222 
ADCP,ioos:station:wmo:42362:1,2006-09-22T19:00:00Z,27.7950,-90.6480,30.0,11111222 
ADCP,ioos:station:wmo:42362:1,2006-09-22T20:00:00Z,27.7950,-90.6480,30.0,11111222 
ADCP,ioos:station:wmo:42362:1,2006-09-22T21:00:00Z,27.7950,-90.6480,30.0,11111222 
ADCP,ioos:station:wmo:42362:1,2006-09-22T22:00:00Z,27.7950,-90.6480,30.0,11111222 
ADCP,ioos:station:wmo:42362:1,2006-09-22T23:00:00Z,27.7950,-90.6480,30.0,11111222 
ADCP,ioos:station:wmo:42362:1,2006-09-23T00:00:00Z,27.7950,-90.6480,29.0,11111222 
ADCP,ioos:station:wmo:42362:1,2006-09-23T01:00:00Z,27.7950,-90.6480,29.0,11111222 
ADCP,ioos:station:wmo:42362:1,2006-09-23T02:00:00Z,27.7950,-90.6480,29.0,11111222 
ADCP,ioos:station:wmo:42362:1,2006-09-23T03:00:00Z,27.7950,-90.6480,29.0,11111222 
ADCP,ioos:station:wmo:42362:1,2006-09-23T04:00:00Z,27.7950,-90.6480,29.0,11111222 
ADCP,ioos:station:wmo:42362:1,2006-09-23T05:00:00Z,27.7950,-90.6480,29.0,11111222 
ADCP,ioos:station:wmo:42362:1,2006-09-23T06:00:00Z,27.7950,-90.6480,29.0,11111222 
ADCP,ioos:station:wmo:42362:1,2006-09-23T07:00:00Z,27.7950,-90.6480,29.0,11111222 
ADCP,ioos:station:wmo:42362:1,2006-09-23T08:00:00Z,27.7950,-90.6480,29.0,11111222 
ADCP,ioos:station:wmo:42362:1,2006-09-23T09:00:00Z,27.7950,-90.6480,29.0,11111222 
ADCP,ioos:station:wmo:42362:1,2006-09-23T10:00:00Z,27.7950,-90.6480,29.0,11111222 
ADCP,ioos:station:wmo:42362:1,2006-09-23T11:00:00Z,27.7950,-90.6480,29.0,11111222 
ADCP,ioos:station:wmo:42362:1,2006-09-23T12:00:00Z,27.7950,-90.6480,29.0,11111222 
ADCP,ioos:station:wmo:42362:1,2006-09-23T13:00:00Z,27.7950,-90.6480,29.0,11111222 
ADCP,ioos:station:wmo:42362:1,2006-09-23T14:00:00Z,27.7950,-90.6480,29.0,11111222 
ADCP,ioos:station:wmo:42362:1,2006-09-23T15:00:00Z,27.7950,-90.6480,29.0,11111222 
ADCP,ioos:station:wmo:42362:1,2006-09-23T16:00:00Z,27.7950,-90.6480,29.0,11111222 
ADCP,ioos:station:wmo:42362:1,2006-09-23T17:00:00Z,27.7950,-90.6480,30.0,11111222 
ADCP,ioos:station:wmo:42362:1,2006-09-23T18:00:00Z,27.7950,-90.6480,30.0,11111222 
ADCP,ioos:station:wmo:42362:1,2006-09-23T19:00:00Z,27.7950,-90.6480,31.0,11111222 
ADCP,ioos:station:wmo:42362:1,2006-09-23T20:00:00Z,27.7950,-90.6480,31.0,11111222 
ADCP,ioos:station:wmo:42362:1,2006-09-23T21:00:00Z,27.7950,-90.6480,31.0,11111222 
ADCP,ioos:station:wmo:42362:1,2006-09-23T22:00:00Z,27.7950,-90.6480,30.0,11111222 
ADCP,ioos:station:wmo:42362:1,2006-09-23T23:00:00Z,27.7950,-90.6480,30.0,11111222 
ADCP,ioos:station:wmo:42362:1,2006-09-24T00:00:00Z,27.7950,-90.6480,29.0,11111222 
ADCP,ioos:station:wmo:42362:1,2006-09-24T01:00:00Z,27.7950,-90.6480,29.0,11111222 
ADCP,ioos:station:wmo:42362:1,2006-09-24T02:00:00Z,27.7950,-90.6480,29.0,11111222 
ADCP,ioos:station:wmo:42362:1,2006-09-24T03:00:00Z,27.7950,-90.6480,29.0,11111222 
ADCP,ioos:station:wmo:42362:1,2006-09-24T04:00:00Z,27.7950,-90.6480,29.0,11111222 
ADCP,ioos:station:wmo:42362:1,2006-09-24T05:00:00Z,27.7950,-90.6480,29.0,11111222 
ADCP,ioos:station:wmo:42362:1,2006-09-24T11:00:00Z,27.7950,-90.6480,29.0,11111222 
ADCP,ioos:station:wmo:42362:1,2006-09-24T12:00:00Z,27.7950,-90.6480,29.0,11111222 
ADCP,ioos:station:wmo:42362:1,2006-09-24T13:00:00Z,27.7950,-90.6480,29.0,11111222 
ADCP,ioos:station:wmo:42362:1,2006-09-24T14:00:00Z,27.7950,-90.6480,29.0,11111222 
ADCP,ioos:station:wmo:42362:1,2006-09-24T15:00:00Z,27.7950,-90.6480,29.0,11111222 
ADCP,ioos:station:wmo:42362:1,2006-09-24T16:00:00Z,27.7950,-90.6480,29.0,11111222 
ADCP,ioos:station:wmo:42362:1,2006-09-24T17:00:00Z,27.7950,-90.6480,29.0,11111222 
ADCP,ioos:station:wmo:42362:1,2006-09-24T18:00:00Z,27.7950,-90.6480,29.0,11111222 
ADCP,ioos:station:wmo:42362:1,2006-09-24T19:00:00Z,27.7950,-90.6480,30.0,11111222 
ADCP,ioos:station:wmo:42362:1,2006-09-24T20:00:00Z,27.7950,-90.6480,29.0,11111222 
ADCP,ioos:station:wmo:42362:1,2006-09-24T21:00:00Z,27.7950,-90.6480,29.0,11111222 
ADCP,ioos:station:wmo:42362:1,2006-09-24T22:00:00Z,27.7950,-90.6480,29.0,11111222 
ADCP,ioos:station:wmo:42362:1,2006-09-24T23:00:00Z,27.7950,-90.6480,29.0,11111222 
ADCP,ioos:station:wmo:42362:1,2006-09-25T00:00:00Z,27.7950,-90.6480,28.0,11111222 
ADCP,ioos:station:wmo:42362:1,2006-09-25T01:00:00Z,27.7950,-90.6480,26.0,11111222 
ADCP,ioos:station:wmo:42362:1,2006-09-25T02:00:00Z,27.7950,-90.6480,26.0,11111222 
ADCP,ioos:station:wmo:42362:1,2006-09-25T03:00:00Z,27.7950,-90.6480,27.0,11111222 
ADCP,ioos:station:wmo:42362:1,2006-09-25T04:00:00Z,27.7950,-90.6480,27.0,11111222 
ADCP,ioos:station:wmo:42362:1,2006-09-25T05:00:00Z,27.7950,-90.6480,28.0,11111222 
ADCP,ioos:station:wmo:42362:1,2006-09-25T06:00:00Z,27.7950,-90.6480,28.0,11111222 
ADCP,ioos:station:wmo:42362:1,2006-09-25T07:00:00Z,27.7950,-90.6480,28.0,11111222 
ADCP,ioos:station:wmo:42362:1,2006-09-25T08:00:00Z,27.7950,-90.6480,28.0,11111222 
ADCP,ioos:station:wmo:42362:1,2006-09-25T09:00:00Z,27.7950,-90.6480,28.0,11111222 
ADCP,ioos:station:wmo:42362:1,2006-09-25T10:00:00Z,27.7950,-90.6480,28.0,11111222 
ADCP,ioos:station:wmo:42362:1,2006-09-25T11:00:00Z,27.7950,-90.6480,27.0,11111222 